Hourly Data Report for October 20, 2013

All times are specified in Local Standard Time (LST). Add 1 hour to adjust for Daylight Saving Time where and when it is observed.

SAINT JOHN A
NEW BRUNSWICK

45°18'58.000" N
65°53'24.000" W
108.80 m
8104901
71609
YSJ

Download Data

Hourly Data (October 2013)
Hourly Data Report for October 20, 2013
Temp Definition
°C
Dew Point Temp Definition
°C
Rel Hum Definition
%
Wind Dir Definition
10's deg

Wind Spd Definition
km/h
Visibility Definition
km
Stn Press Definition
kPa
Hmdx Definition


Wind Chill Definition


Weather Definition


TIME
00:00 Legend Double Dagger 8.9 8.6 98 19 10 24.1 99.74     LegendNANA
01:00 Legend Double Dagger 9.1 8.8 98 16 4 24.1 99.69     LegendNANA
02:00 Legend Double Dagger 8.5 8.4 99 17 1 19.3 99.67     Cloudy
03:00 Legend Double Dagger 10.0 9.7 98 19 9 19.3 99.60     LegendNANA
04:00 Legend Double Dagger 9.9 9.3 96 15 7 19.3 99.54     LegendNANA
05:00 Legend Double Dagger 9.4 9.0 97 19 3 19.3 99.50     Cloudy
06:00 Legend Double Dagger 9.2 8.6 96 16 6 19.3 99.45     LegendNANA
07:00 Legend Double Dagger 9.6 9.0 96 15 8 19.3 99.40     LegendNANA
08:00 Legend Double Dagger 10.4 9.2 92 15 18 24.1 99.38     Mostly Cloudy
09:00 Legend Double Dagger 10.6 9.5 93 14 13 19.3 99.36     Rain
10:00 Legend Double Dagger 10.5 9.6 94 13 13 9.7 99.31     Rain,Fog
11:00 Legend Double Dagger 10.8 10.4 97 12 10 4.8 99.21     Rain,Fog
12:00 Legend Double Dagger 10.6 10.3 98 12 22 8.1 99.12     Rain,Fog
13:00 Legend Double Dagger 11.4 11.1 98 19 16 4.0 99.09     Rain,Fog
14:00 Legend Double Dagger 13.6 12.3 92 25 14 11.3 99.07     Rain
15:00 Legend Double Dagger 13.0 11.3 89 26 12 16.1 99.09     LegendNANA
16:00 Legend Double Dagger 12.6 10.3 86 26 9 19.3 99.16     LegendNANA
17:00 Legend Double Dagger 12.1 9.5 84 29 11 24.1 99.24     Mainly Clear
18:00 Legend Double Dagger 9.8 8.7 93 25 6 24.1 99.32     LegendNANA
19:00 Legend Double Dagger 7.0 6.0 93 23 9 24.1 99.38     Fog
20:00 Legend Double Dagger 8.0 6.8 92 25 6 24.1 99.45     Fog
21:00 Legend Double Dagger 8.0 4.4 78 28 11 24.1 99.54     LegendNANA
22:00 Legend Double Dagger 5.3 3.6 89 29 6 24.1 99.62     LegendNANA
23:00 Legend Double Dagger 6.4 1.5 71 28 12 24.1 99.67     Clear

Notes on Data Quality.

Legend

  • E = Estimated
  • M = Missing
  • NA = Not Available
  • ‡ = Partner data that is not subject to review by the National Climate Archives
Date modified: